NSZ4528 GMMX-ESSA

Flight info

Callsign NSZ4528
Flight time N/A
Altitude 36000
Route MABAP UR722 SAK UG5 KORIS DCT SVL DCT HIJ DCT RUSEM DCT SOTUK DCT USOKO DCT TLD DCT SIE DCT EDIGO DCT DGO L176 LUSEM/N0451F380 DCT LULUT DCT ADABI DCT BOKNO UN858 VANAD UN874 ARSAF DCT EGOZE DCT CMB DCT VEKIN DCT ADUTO/N0447F370 DCT VICOT DCT BEDUM N873 JUIST DCT HUNQI DCT LUTIR DCT GIXUN DCT DETSO N873 ARS T317 ELTOK
Aircraft B38M/M-SDE1FGHILORVWXY/HB1

Departure

Time 2026-05-08 16:27
Airport Marrakesh Menara Airport (GMMX)

Arrival

Time N/A
Airport Stockholm-Arlanda Airport (ESSA)
Time Latitude Longitude Altitude Speed Heading
2026-05-08 16:06 31.60051 -8.02332 1538 ft 0 kts 276°
2026-05-08 16:18 31.60047 -8.02308 1541 ft 4 kts 285°
2026-05-08 16:18 31.60037 -8.02279 1534 ft 4 kts 301°
2026-05-08 16:19 31.60020 -8.02255 1536 ft 4 kts 323°
2026-05-08 16:19 31.59997 -8.02242 1541 ft 4 kts 347°
2026-05-08 16:19 31.59971 -8.02240 1543 ft 3 kts
2026-05-08 16:19 31.59968 -8.02240 1543 ft 2 kts
2026-05-08 16:21 31.59967 -8.02240 1543 ft 0 kts
2026-05-08 16:22 31.59970 -8.02240 1543 ft 1 kts
2026-05-08 16:23 31.59997 -8.02236 1533 ft 8 kts
2026-05-08 16:23 31.60048 -8.02230 1543 ft 11 kts
2026-05-08 16:23 31.60137 -8.02218 1543 ft 13 kts
2026-05-08 16:23 31.60222 -8.02207 1539 ft 11 kts
2026-05-08 16:24 31.60305 -8.02196 1538 ft 2 kts
2026-05-08 16:24 31.60351 -8.02189 1543 ft 11 kts
2026-05-08 16:24 31.60387 -8.02137 1544 ft 8 kts 96°
2026-05-08 16:24 31.60396 -8.02049 1542 ft 14 kts 33°
2026-05-08 16:25 31.60497 -8.02030 1544 ft 10 kts
2026-05-08 16:25 31.60546 -8.02045 1543 ft 6 kts 312°
2026-05-08 16:25 31.60551 -8.02063 1535 ft 0 kts 276°
2026-05-08 16:26 31.60554 -8.02099 1536 ft 20 kts 275°
2026-05-08 16:26 31.60596 -8.02592 1539 ft 99 kts 276°
2026-05-08 16:26 31.60686 -8.03677 1538 ft 164 kts 275°
2026-05-08 16:26 31.60825 -8.05141 1935 ft 194 kts 277°
2026-05-08 16:27 31.60986 -8.06765 2820 ft 196 kts 275°
2026-05-08 16:27 31.61121 -8.08371 3687 ft 207 kts 275°
2026-05-08 16:27 31.61277 -8.10173 4139 ft 235 kts 275°
2026-05-08 16:27 31.61443 -8.12081 5130 ft 235 kts 275°
2026-05-08 16:28 31.61607 -8.13969 6239 ft 234 kts 274°
2026-05-08 16:28 31.61847 -8.15910 7002 ft 247 kts 283°
2026-05-08 16:28 31.62673 -8.17683 7800 ft 259 kts 310°
2026-05-08 16:28 31.64224 -8.18848 8550 ft 273 kts 342°
2026-05-08 16:29 31.66128 -8.18946 9381 ft 281 kts 13°
2026-05-08 16:29 31.68043 -8.18294 10079 ft 291 kts 14°
2026-05-08 16:29 31.70023 -8.17719 10848 ft 294 kts 12°
2026-05-08 16:29 31.72003 -8.17162 11604 ft 298 kts 12°
2026-05-08 16:30 31.74035 -8.16603 12395 ft 301 kts 11°
2026-05-08 16:30 31.76091 -8.16043 13152 ft 305 kts 10°
2026-05-08 16:30 31.78175 -8.15476 13863 ft 310 kts 10°
2026-05-08 16:30 31.80337 -8.15105 14309 ft 318 kts 353°
2026-05-08 16:31 31.82545 -8.15420 14602 ft 334 kts 348°
2026-05-08 16:31 31.84923 -8.15764 14858 ft 354 kts 349°
2026-05-08 16:31 31.87429 -8.16120 15191 ft 369 kts 349°
2026-05-08 16:31 31.90025 -8.16491 15665 ft 378 kts 348°
2026-05-08 16:32 31.92646 -8.16867 16400 ft 380 kts 348°
2026-05-08 16:32 31.95295 -8.17247 17014 ft 385 kts 348°
2026-05-08 16:32 31.97936 -8.17627 17652 ft 388 kts 348°
2026-05-08 16:32 32.00627 -8.18014 18251 ft 392 kts 348°
2026-05-08 16:33 32.03345 -8.18405 18776 ft 395 kts 347°
2026-05-08 16:33 32.06100 -8.18802 19294 ft 399 kts 347°
2026-05-08 16:33 32.08826 -8.19194 19816 ft 402 kts 347°
2026-05-08 16:33 32.11635 -8.19577 20331 ft 408 kts 351°
2026-05-08 16:34 32.14514 -8.19336 20855 ft 418 kts
2026-05-08 16:34 32.17408 -8.18881 21324 ft 422 kts
2026-05-08 16:34 32.20302 -8.18429 21795 ft 426 kts
2026-05-08 16:34 32.23256 -8.17957 22269 ft 430 kts
2026-05-08 16:35 32.26235 -8.17476 22750 ft 434 kts
2026-05-08 16:35 32.29239 -8.16989 23225 ft 437 kts
2026-05-08 16:35 32.32268 -8.16497 23634 ft 441 kts
2026-05-08 16:35 32.35327 -8.16000 24022 ft 444 kts
2026-05-08 16:36 32.38403 -8.15500 24438 ft 447 kts
2026-05-08 16:36 32.41466 -8.15002 24816 ft 450 kts
2026-05-08 16:36 32.44584 -8.14494 25205 ft 453 kts
2026-05-08 16:36 32.47723 -8.13983 25556 ft 456 kts
2026-05-08 16:37 32.50886 -8.13467 25909 ft 460 kts
2026-05-08 16:37 32.54077 -8.12946 26253 ft 462 kts
2026-05-08 16:37 32.57231 -8.12431 26621 ft 464 kts
2026-05-08 16:37 32.60450 -8.11905 26959 ft 468 kts
2026-05-08 16:38 32.63685 -8.11376 27339 ft 471 kts
2026-05-08 16:38 32.66959 -8.10841 27621 ft 475 kts
2026-05-08 16:38 32.70209 -8.10309 27972 ft 477 kts
2026-05-08 16:38 32.73503 -8.09768 28298 ft 480 kts
2026-05-08 16:39 32.76828 -8.09222 28616 ft 483 kts
2026-05-08 16:39 32.80163 -8.08674 28943 ft 485 kts
2026-05-08 16:39 32.83503 -8.08125 29250 ft 488 kts
2026-05-08 16:39 32.86880 -8.07569 29563 ft 490 kts 360°
2026-05-08 16:40 32.90273 -8.07008 29896 ft 494 kts
2026-05-08 16:40 32.93621 -8.06032 30113 ft 510 kts 16°
2026-05-08 16:40 32.96820 -8.04133 30474 ft 515 kts 24°
2026-05-08 16:40 32.99995 -8.02107 30667 ft 519 kts 23°
2026-05-08 16:41 33.03192 -8.00042 30957 ft 521 kts 24°
2026-05-08 16:41 33.06360 -7.97970 31234 ft 522 kts 24°
2026-05-08 16:41 33.09516 -7.95897 31474 ft 525 kts 24°
2026-05-08 16:42 33.15936 -7.91671 31988 ft 528 kts 24°
2026-05-08 16:42 33.19172 -7.89538 32238 ft 530 kts 24°
2026-05-08 16:42 33.22412 -7.87401 32485 ft 532 kts 24°
2026-05-08 16:42 33.25653 -7.85261 32738 ft 534 kts 24°
2026-05-08 16:43 33.28908 -7.83110 32992 ft 536 kts 24°
2026-05-08 16:43 33.32135 -7.80976 33217 ft 537 kts 24°
2026-05-08 16:43 33.35408 -7.78810 33483 ft 538 kts 24°
2026-05-08 16:43 33.38706 -7.76625 33819 ft 538 kts 24°
2026-05-08 16:44 33.41950 -7.74474 34106 ft 537 kts 24°
2026-05-08 16:44 33.45227 -7.72299 34428 ft 537 kts 24°
2026-05-08 16:44 33.48519 -7.70113 34640 ft 538 kts 24°
2026-05-08 16:44 33.51756 -7.67998 34875 ft 537 kts 21°
2026-05-08 16:45 33.55113 -7.65994 35143 ft 535 kts 21°
2026-05-08 16:45 33.58414 -7.64005 35383 ft 535 kts 21°
2026-05-08 16:45 33.61748 -7.61981 35631 ft 535 kts 21°
2026-05-08 16:45 33.65070 -7.59960 35846 ft 535 kts 21°
2026-05-08 16:46 33.68367 -7.57953 35935 ft 534 kts 21°
2026-05-08 16:46 33.74991 -7.53914 35920 ft 531 kts 21°
2026-05-08 16:47 33.81587 -7.49885 35899 ft 532 kts 22°
2026-05-08 16:47 33.88162 -7.45862 35893 ft 532 kts 22°
2026-05-08 16:48 33.94753 -7.41823 35900 ft 532 kts 22°
2026-05-08 16:48 34.01359 -7.37767 35931 ft 533 kts 22°
2026-05-08 16:49 34.07956 -7.33710 35910 ft 533 kts 22°
2026-05-08 16:49 34.14557 -7.29650 35909 ft 533 kts 22°
2026-05-08 16:50 34.21131 -7.25604 35906 ft 533 kts 22°
2026-05-08 16:50 34.27746 -7.21526 35921 ft 534 kts 22°
2026-05-08 16:51 34.34363 -7.17439 35902 ft 534 kts 22°
2026-05-08 16:51 34.40973 -7.13349 35906 ft 534 kts 22°
2026-05-08 16:52 34.47595 -7.09244 35907 ft 534 kts 22°